Back to catalog

STARLINK-37777

AliveCommunicationsSSO
NORAD 69349·PAYLOAD·🇺🇸 United States

Launched Jun 3, 2026 from Vandenberg Space Force Base

Loading…

Next Passes (next 24 hours)

TLE

FreshSource: CelesTrak SupGP

Epoch: Sep 14, 2026, 23:09 UTC

1 69349C 26122W   26257.96506944  .00030492  00000+0  94657-3 0  2577
2 69349  97.2827 286.7161 0001031  87.0823 298.6670 15.33423236    13

Track STARLINK-37777 in real time with AllMySat

Download on the App Store